Location: Clanezzo
(45.7500°N, 9.6000°E)
Time: 06:32:03
(UTC+00:00)

Gbstr 26 Del rocket - Pass Details

Date: 27 September 2021
Orbit: 492 x 1263 km, 51.8° (Epoch: 20 October)

Event Time Altitude Azimuth Distance (km) Brightness Sun altitude
Rises 22:54:39 0° 284° (WNW) 4,138 7.5 -46.1°
Reaches altitude 10° 22:57:31 10° 288° (WNW) 3,217 6.8 -46.1°
Enters shadow 22:57:43 11° 289° (WNW) 3,153 6.8 -46.1°
